GLOBALSTAR M085 (37742 NORAD) Tracking and Keplerian Element Data

This shows tracking and keplerian element data for the satellite.

Feedback or suggestion? Click here.




ElementValue
Catalog37742
NameGLOBALSTAR M085
Epoch Orbit62685
Epoch Day34.80821459
Epoch Year2025
RAAN270.3564
Inclination51.9858
Eccentricity7.46E-05
Argument of Perigee61.4234
Mean Anonmoly16.0733
Mean Motion12.62265052
Decay Rate-8.8E-07
L11 37742U 11033D 25034.80821459 -.00000088 00000+0 89727-4 0 9995
L22 37742 51.9858 270.3564 0000746 61.4234 16.0733 12.62265052626853



Live tracking and technical data element details for GLOBALSTAR M085 (NORAD 37742). GLOBALSTAR M085 can be tracked NOW for your location showing map with azimuth and elevation plus other details from your city location.







IsCatalogInMostPopularTable: catalog: 37742, numindb: 348
Update: records affected: 1



GetName: 37742 GLOBALSTAR M085

Hit Count: updated at: Thu, 15 May 2025 09:54:37 GMT